BTI31C ESSA-EFHK

Flight info

Callsign BTI31C
Flight time 0h 39m
Altitude 29000
Route TOVRI6G TOVRI N851 RIKUM DCT RIRIP Y364 LAKUT LAKUT8M
Aircraft A320/M-VGDW/C

Departure

Time 2026-05-07 17:22
Airport Stockholm-Arlanda Airport (ESSA)

Arrival

Time 2026-05-07 18:02
Airport Helsinki Vantaa Airport (EFHK)
Time Latitude Longitude Altitude Speed Heading
2026-05-07 17:07 59.65039 17.92584 140 ft 0 kts 39°
2026-05-07 17:13 59.65033 17.92575 140 ft 3 kts 39°
2026-05-07 17:13 59.65019 17.92551 141 ft 3 kts 39°
2026-05-07 17:14 59.65003 17.92536 140 ft 3 kts 340°
2026-05-07 17:14 59.64991 17.92559 140 ft 3 kts 265°
2026-05-07 17:14 59.64991 17.92566 140 ft 0 kts 255°
2026-05-07 17:17 59.64974 17.92464 141 ft 18 kts 257°
2026-05-07 17:17 59.64970 17.92143 141 ft 13 kts 304°
2026-05-07 17:17 59.65028 17.92138 141 ft 14 kts
2026-05-07 17:18 59.65174 17.92206 141 ft 29 kts 10°
2026-05-07 17:18 59.65383 17.92282 141 ft 30 kts
2026-05-07 17:18 59.65587 17.92358 141 ft 30 kts 10°
2026-05-07 17:18 59.65793 17.92436 141 ft 30 kts 11°
2026-05-07 17:19 59.65997 17.92506 141 ft 30 kts 11°
2026-05-07 17:19 59.66204 17.92579 141 ft 30 kts 11°
2026-05-07 17:19 59.66409 17.92657 141 ft 29 kts
2026-05-07 17:19 59.66539 17.92607 141 ft 0 kts 339°
2026-05-07 17:21 59.66567 17.92586 142 ft 11 kts 339°
2026-05-07 17:21 59.66624 17.92442 144 ft 14 kts 276°
2026-05-07 17:21 59.66594 17.92366 144 ft 6 kts 189°
2026-05-07 17:21 59.66419 17.92303 145 ft 60 kts 191°
2026-05-07 17:22 59.65773 17.92065 147 ft 128 kts 190°
2026-05-07 17:22 59.64776 17.91635 505 ft 148 kts 193°
2026-05-07 17:22 59.63793 17.91125 1298 ft 142 kts 193°
2026-05-07 17:22 59.62792 17.90749 1995 ft 157 kts 192°
2026-05-07 17:23 59.61630 17.90413 2535 ft 179 kts 187°
2026-05-07 17:23 59.60316 17.90247 3003 ft 199 kts 184°
2026-05-07 17:23 59.58858 17.90129 3611 ft 216 kts 183°
2026-05-07 17:23 59.57340 17.90307 4394 ft 221 kts 167°
2026-05-07 17:24 59.55861 17.91492 4888 ft 244 kts 150°
2026-05-07 17:24 59.54585 17.93656 4999 ft 266 kts 123°
2026-05-07 17:24 59.54045 17.97102 5053 ft 266 kts 87°
2026-05-07 17:24 59.54440 18.00662 5104 ft 266 kts 65°
2026-05-07 17:25 59.55319 18.03872 5106 ft 265 kts 55°
2026-05-07 17:25 59.56372 18.06807 5102 ft 266 kts 52°
2026-05-07 17:25 59.57488 18.09728 5103 ft 266 kts 51°
2026-05-07 17:25 59.58583 18.12687 5102 ft 266 kts 53°
2026-05-07 17:26 59.59630 18.15693 5103 ft 266 kts 55°
2026-05-07 17:26 59.60641 18.18771 5105 ft 266 kts 56°
2026-05-07 17:26 59.61608 18.21838 5128 ft 266 kts 56°
2026-05-07 17:26 59.62574 18.24980 5127 ft 266 kts 57°
2026-05-07 17:27 59.63531 18.28130 5125 ft 266 kts 57°
2026-05-07 17:27 59.64472 18.31240 5127 ft 266 kts 57°
2026-05-07 17:27 59.65423 18.34386 5195 ft 268 kts 57°
2026-05-07 17:27 59.66393 18.37585 5864 ft 271 kts 57°
2026-05-07 17:28 59.67356 18.40767 6943 ft 272 kts 57°
2026-05-07 17:28 59.68334 18.43996 7965 ft 275 kts 57°
2026-05-07 17:28 59.69332 18.47288 8954 ft 281 kts 56°
2026-05-07 17:28 59.70356 18.50661 9949 ft 288 kts 56°
2026-05-07 17:29 59.71399 18.54102 10650 ft 304 kts 56°
2026-05-07 17:29 59.72536 18.57840 11149 ft 325 kts 56°
2026-05-07 17:29 59.73723 18.61761 11961 ft 336 kts 56°
2026-05-07 17:29 59.74921 18.65744 12864 ft 343 kts 56°
2026-05-07 17:30 59.76156 18.69862 13826 ft 350 kts 56°
2026-05-07 17:30 59.77407 18.74047 14627 ft 356 kts 56°
2026-05-07 17:30 59.78689 18.78336 15373 ft 364 kts 56°
2026-05-07 17:30 59.79995 18.82717 16129 ft 371 kts 56°
2026-05-07 17:31 59.81309 18.87127 16875 ft 377 kts 56°
2026-05-07 17:31 59.82659 18.91667 17629 ft 384 kts 56°
2026-05-07 17:31 59.84034 18.96299 18390 ft 391 kts 56°
2026-05-07 17:31 59.85430 19.01011 19045 ft 397 kts 56°
2026-05-07 17:32 59.86841 19.05783 19730 ft 402 kts 56°
2026-05-07 17:32 59.88253 19.10570 20411 ft 407 kts 56°
2026-05-07 17:32 59.89695 19.15471 21081 ft 412 kts 56°
2026-05-07 17:32 59.91137 19.20380 21725 ft 417 kts 56°
2026-05-07 17:33 59.92612 19.25412 22353 ft 422 kts 56°
2026-05-07 17:33 59.94108 19.30525 22965 ft 429 kts 55°
2026-05-07 17:33 59.95622 19.35723 23516 ft 435 kts 56°
2026-05-07 17:33 59.96904 19.41265 24056 ft 444 kts 67°
2026-05-07 17:34 59.97842 19.47089 24555 ft 448 kts 71°
2026-05-07 17:34 59.98678 19.53120 25085 ft 452 kts 73°
2026-05-07 17:34 59.99447 19.59270 25569 ft 456 kts 74°
2026-05-07 17:34 60.00182 19.65465 26051 ft 459 kts 74°
2026-05-07 17:35 60.00910 19.71720 26527 ft 463 kts 74°
2026-05-07 17:35 60.01632 19.77933 26973 ft 466 kts 74°
2026-05-07 17:35 60.02373 19.84263 27423 ft 469 kts 74°
2026-05-07 17:35 60.03123 19.90649 27867 ft 472 kts 74°
2026-05-07 17:36 60.03883 19.97094 28305 ft 475 kts 74°
2026-05-07 17:36 60.04647 20.03578 28733 ft 478 kts 74°
2026-05-07 17:36 60.05404 20.10012 29088 ft 482 kts 74°
2026-05-07 17:36 60.06171 20.16567 29152 ft 483 kts 74°
2026-05-07 17:37 60.07695 20.29696 29151 ft 483 kts 74°
2026-05-07 17:37 60.09206 20.42841 29147 ft 484 kts 75°
2026-05-07 17:38 60.10696 20.55930 29146 ft 484 kts 75°
2026-05-07 17:38 60.12185 20.69143 29142 ft 484 kts 75°
2026-05-07 17:39 60.13662 20.82368 29142 ft 484 kts 75°
2026-05-07 17:39 60.15119 20.95546 29145 ft 484 kts 75°
2026-05-07 17:40 60.16561 21.08718 29137 ft 484 kts 75°
2026-05-07 17:40 60.17998 21.21976 29138 ft 485 kts 76°
2026-05-07 17:41 60.19417 21.35199 29158 ft 485 kts 76°
2026-05-07 17:41 60.20830 21.48497 29135 ft 488 kts 76°
2026-05-07 17:42 60.22240 21.61870 29124 ft 489 kts 76°
2026-05-07 17:42 60.23633 21.75233 29129 ft 489 kts 76°
2026-05-07 17:43 60.25020 21.88669 29133 ft 489 kts 76°
2026-05-07 17:43 60.26381 22.02001 29122 ft 489 kts 77°
2026-05-07 17:44 60.27736 22.15413 28986 ft 482 kts 77°
2026-05-07 17:44 60.28392 22.21980 28702 ft 472 kts 77°
2026-05-07 17:44 60.29034 22.28434 28412 ft 464 kts 77°
2026-05-07 17:45 60.29660 22.34760 28133 ft 456 kts 77°
2026-05-07 17:45 60.30269 22.40933 27864 ft 454 kts 77°
2026-05-07 17:45 60.30881 22.47161 27409 ft 451 kts 77°
2026-05-07 17:45 60.31492 22.53416 26783 ft 454 kts 77°
2026-05-07 17:46 60.32106 22.59716 26007 ft 457 kts 77°
2026-05-07 17:46 60.32713 22.65999 25304 ft 453 kts 77°
2026-05-07 17:46 60.33301 22.72141 24643 ft 448 kts 78°
2026-05-07 17:46 60.33890 22.78326 23958 ft 444 kts 78°
2026-05-07 17:47 60.34469 22.84438 23202 ft 442 kts 78°
2026-05-07 17:47 60.35044 22.90534 22457 ft 436 kts 78°
2026-05-07 17:47 60.35598 22.96438 21780 ft 430 kts 78°
2026-05-07 17:47 60.36150 23.02343 21099 ft 424 kts 78°
2026-05-07 17:48 60.36691 23.08167 20430 ft 419 kts 78°
2026-05-07 17:48 60.37224 23.13929 19750 ft 413 kts 78°
2026-05-07 17:48 60.37748 23.19620 19076 ft 408 kts 78°
2026-05-07 17:48 60.38264 23.25254 18404 ft 403 kts 78°
2026-05-07 17:49 60.38763 23.30730 17686 ft 398 kts 78°
2026-05-07 17:49 60.39258 23.36187 17030 ft 391 kts 78°
2026-05-07 17:49 60.39742 23.41552 16387 ft 384 kts 78°
2026-05-07 17:49 60.40216 23.46834 15750 ft 377 kts 78°
2026-05-07 17:50 60.40681 23.52027 15122 ft 371 kts 78°
2026-05-07 17:50 60.40983 23.55415 14708 ft 368 kts 78°
2026-05-07 17:50 60.41433 23.60477 14103 ft 362 kts 78°
2026-05-07 17:50 60.42015 23.67056 13273 ft 354 kts 78°
2026-05-07 17:51 60.42306 23.70356 12845 ft 350 kts 78°
2026-05-07 17:51 60.42722 23.75098 12270 ft 342 kts 78°
2026-05-07 17:51 60.43130 23.79775 11827 ft 331 kts 78°
2026-05-07 17:51 60.43528 23.84349 11217 ft 331 kts 78°
2026-05-07 17:52 60.43884 23.88950 10603 ft 328 kts 81°
2026-05-07 17:52 60.44163 23.93485 10126 ft 322 kts 82°
2026-05-07 17:52 60.44424 23.97957 9646 ft 318 kts 82°
2026-05-07 17:52 60.44680 24.02406 9149 ft 315 kts 82°
2026-05-07 17:53 60.44931 24.06769 8669 ft 313 kts 82°
2026-05-07 17:53 60.45178 24.11098 8184 ft 304 kts 82°
2026-05-07 17:53 60.45134 24.15296 7725 ft 292 kts 98°
2026-05-07 17:53 60.44827 24.19219 7297 ft 279 kts 98°
2026-05-07 17:54 60.44584 24.23034 6875 ft 268 kts 95°
2026-05-07 17:54 60.44504 24.26735 6438 ft 260 kts 85°
2026-05-07 17:54 60.44805 24.30322 5949 ft 255 kts 75°
2026-05-07 17:54 60.45261 24.33739 5489 ft 252 kts 71°
2026-05-07 17:55 60.45755 24.37099 5144 ft 243 kts 70°
2026-05-07 17:55 60.46237 24.40304 5078 ft 234 kts 70°
2026-05-07 17:55 60.46719 24.43466 5081 ft 235 kts 70°
2026-05-07 17:55 60.47122 24.46695 5080 ft 237 kts 79°
2026-05-07 17:56 60.47205 24.50007 4910 ft 234 kts 88°
2026-05-07 17:56 60.47137 24.53273 4483 ft 235 kts 91°
2026-05-07 17:56 60.47013 24.56585 4040 ft 234 kts 92°
2026-05-07 17:56 60.46867 24.59855 3520 ft 236 kts 93°
2026-05-07 17:57 60.46708 24.63147 3162 ft 230 kts 94°
2026-05-07 17:57 60.46548 24.66305 2915 ft 221 kts 95°
2026-05-07 17:57 60.46391 24.69380 2580 ft 217 kts 95°
2026-05-07 17:57 60.46233 24.72421 2203 ft 216 kts 96°
2026-05-07 17:58 60.46077 24.75410 2012 ft 214 kts 96°
2026-05-07 17:58 60.45920 24.78397 1992 ft 213 kts 96°
2026-05-07 17:58 60.45675 24.81366 1983 ft 213 kts 114°
2026-05-07 17:58 60.44811 24.83759 1999 ft 211 kts 136°
2026-05-07 17:59 60.43659 24.85571 1999 ft 209 kts 153°
2026-05-07 17:59 60.42369 24.86853 1995 ft 209 kts 156°
2026-05-07 17:59 60.41063 24.88176 1980 ft 209 kts 155°
2026-05-07 17:59 60.39786 24.89517 1745 ft 203 kts 154°
2026-05-07 18:00 60.38543 24.90804 1439 ft 197 kts 155°
2026-05-07 18:00 60.37351 24.92024 1151 ft 184 kts 155°
2026-05-07 18:00 60.36274 24.93128 900 ft 167 kts 155°
2026-05-07 18:00 60.35289 24.94139 683 ft 150 kts 155°
2026-05-07 18:01 60.34407 24.95044 555 ft 134 kts 154°
2026-05-07 18:01 60.33603 24.95868 324 ft 125 kts 154°
2026-05-07 18:01 60.32841 24.96647 195 ft 123 kts 153°
2026-05-07 18:01 60.32120 24.97385 175 ft 105 kts 149°
2026-05-07 18:02 60.31163 24.98361 199 ft 42 kts 153°
2026-05-07 18:02 60.30982 24.98341 197 ft 16 kts 236°
2026-05-07 18:02 60.30967 24.98287 195 ft 0 kts 243°
2026-05-07 18:04 60.30966 24.98280 196 ft 4 kts 243°
2026-05-07 18:04 60.30971 24.98210 194 ft 9 kts 324°
2026-05-07 18:04 60.31081 24.98110 189 ft 24 kts 334°
2026-05-07 18:05 60.31188 24.98000 194 ft 14 kts 334°
2026-05-07 18:05 60.31264 24.97922 191 ft 13 kts 332°
2026-05-07 18:05 60.31345 24.97838 188 ft 14 kts 333°
2026-05-07 18:05 60.31435 24.97748 183 ft 15 kts 333°
2026-05-07 18:06 60.31531 24.97647 182 ft 16 kts 331°
2026-05-07 18:06 60.31632 24.97538 181 ft 17 kts 333°
2026-05-07 18:06 60.31742 24.97431 180 ft 18 kts 333°
2026-05-07 18:06 60.31859 24.97309 178 ft 20 kts 333°
2026-05-07 18:07 60.31929 24.97186 177 ft 8 kts 268°
2026-05-07 18:07 60.31943 24.97072 176 ft 9 kts 316°
2026-05-07 18:07 60.32002 24.97010 175 ft 10 kts 335°
2026-05-07 18:07 60.32070 24.96941 174 ft 12 kts 332°
2026-05-07 18:08 60.32085 24.96825 173 ft 9 kts 239°
2026-05-07 18:08 60.32043 24.96738 172 ft 8 kts 206°
2026-05-07 18:08 60.31999 24.96726 173 ft 6 kts 184°
2026-05-07 18:08 60.31971 24.96729 173 ft 0 kts 172°
2026-05-07 18:09 60.31970 24.96729 173 ft 0 kts 173°